www.pogodaiklimat.ru

Погода и климат >> Архив погоды >> Россия >> Красноярский край >> Остров Диксон


АРХИВ ПОГОДЫ на Острове Диксон

Время (UTC), дата Ветер
(напр.,м/с)
 
Видим.   Явления Облачность Т
(С)
Тd
(С)
f
(%)
Тe
(С)
Тes
(С)
Комфортность P
(гПа)
Po
(гПа)
Тmin
(С)
Tmax
(С)
R
(мм)
R24
(мм)
S
(см)
06 16.08 ЮЗ 4 20 км 9/8 300 м
[Sc Ac und]
+9.4 +8.1 92 +6 +7 по сезону 1013.1 1007.4
09 16.08 ЮЗ 3 20 км 9/9 330 м
[Sc]
+10.3 +9.2 93 +8 +8 тепло 1013.4 1007.7
12 16.08 Ю 3 20 км 9/8 360 м
[Sc Ci fib]
+11.4 +10.5 94 +9 +10 тепло 1013.7 1008.0 +11.4
15 16.08 ЮВ 2 20 км 9/0
[Ac trans Ci fib]
+10.8 +10.3 97 +9 +9 тепло 1013.6 1007.9
18 16.08 ЮВ 2 20 км 9/0
[Ci sp]
+9.8 +9.0 95 +8 +8 тепло 1012.6 1006.9
21 16.08 В 4 20 км 9/0
[Ac trans Ci]
+10.1 +9.5 96 +7 +7 тепло 1010.8 1005.1
00 17.08 СВ 4 2000 м дождь 10/8 120 м
[Frnb As op]
+11.3 +11.1 99 +9 +9 тепло 1008.4 1002.8 +9.7 5
03 17.08 ЮВ 4 4000 м в посл. час дождь 10/10 240 м
[Sc]
+13.2 +13.0 99 +11 +11 тепло 1005.6 1000.0
06 17.08 Ю 4 2000 м дымка {дождь} 10/10 90 м
[St]
+13.8 +13.4 97 +12 +12 тепло 1004.0 998.5
09 17.08 ЮЗ 4 200 м дождь {туман} туман ?/? +12.9 +12.9 100 +11 +11 тепло 1003.7 998.1
12 17.08 Ю 5 2000 м слаб. ливневой дождь 10/10 240 м
[Cb cap]
+14.3 +13.9 97 +13 +13 тепло 1003.4 997.9 +14.4 9
15 17.08 Ю 10-15
{15}
20 км {ливн. осадки} 8/6 360 м
[Sc Ac trans]
+13.1 +12.7 97 +10 +10 тепло 1003.5 997.9
18 17.08 ЮЗ 5
{15}
1000 м дымка {ливн. осадки} 10/10 90 м
[St]
+11.3 +11.1 99 +8 +8 тепло 1005.4 999.8
21 17.08 ЮЗ 4 500 м туман ?/? +10.6 +10.6 100 +8 +8 тепло 1006.4 1000.8
00 18.08 ЮЗ 2 500 м туман ?/? +10.4 +10.4 100 +9 +9 тепло 1007.8 1002.2 +10.0 0.0
03 18.08 С 3 500 м туман {ливн. осадки} ?/? +10.2 +10.2 100 +8 +8 тепло 1008.8 1003.2
06 18.08 С 5 4000 м в посл. час морось {ливн. осадки} 10/10 150 м
[St]
+8.7 +8.2 97 +5 +5 по сезону 1010.0 1004.4
09 18.08 СЗ 7 10 км слаб. ливневой дождь 10/10 120 м
[Cb cap]
+8.4 +7.8 96 +4 +4 по сезону 1011.9 1006.2
12 18.08 С 7 20 км {ливн. осадки} 10/10 150 м
[St]
+8.2 +7.6 96 +4 +4 по сезону 1014.3 1008.6 +10.4 0.7
15 18.08 СЗ 8
{10}
20 км {морось} 10/10 150 м
[St]
+8.1 +7.7 97 +3 +3 по сезону 1016.4 1010.7
18 18.08 С 6
{11}
20 км {морось} 9/9 150 м
[St]
+7.6 +6.8 95 +3 +3 по сезону 1019.2 1012.8
21 18.08 СЗ 5 20 км 9/9 300 м
[Sc]
+7.2 +5.1 86 +3 +3 по сезону 1020.3 1014.6
00 19.08 СЗ 3 20 км 9/9 330 м
[Sc]
+7.0 +4.3 83 +4 +4 по сезону 1022.3 1016.5 +6.8 0.0
03 19.08 СЗ 3 20 км 9/9 420 м
[Sc]
+7.8 +5.1 83 +5 +5 по сезону 1023.3 1017.5
06 19.08 З 3 20 км в посл. час ливневой дождь 9/9 300 м
[Cb cap]
+7.9 +6.5 91 +5 +5 по сезону 1024.4 1018.6
09 19.08 З 4 20 км 10/10 330 м
[Sc]
+8.1 +5.9 86 +5 +5 по сезону 1025.3 1019.5
12 19.08 З 3 20 км 10/10 360 м
[Sc]
+8.1 +6.7 91 +5 +5 по сезону 1025.9 1020.1 +8.5 0.0
15 19.08 ЮЗ 4 н/о н/о +8.0 +7.4 96 +5 +5 по сезону 1027.1 1020.7
18 19.08 ЮЗ 5 20 км 10/10 300 м
[Sc]
+8.7 +7.9 95 +5 +5 тепло 1026.8 1021.0
21 19.08 ЮЗ 5 20 км 10/10 270 м
[St]
+9.2 +8.4 95 +6 +6 тепло 1027.2 1021.4
00 20.08 ЮЗ 5 4000 м дымка 10/10 120 м
[St]
+9.0 +8.6 97 +5 +5 по сезону 1027.8 1022.0 +8.2
03 20.08 ЮЗ 5 20 км {морось} 10/10 150 м
[St]
+9.4 +9.0 97 +6 +6 по сезону 1028.1 1022.3
06 20.08 ЮЗ 5 20 км {морось} 10/10 240 м
[Sc]
+9.9 +8.6 92 +7 +7 тепло 1028.5 1022.8
09 20.08 ЮЗ 4 20 км 9/9 300 м
[Sc]
+10.8 +8.3 85 +8 +9 тепло 1028.8 1023.1
12 20.08 Ю 4 20 км 9/9 420 м
[Sc]
+10.7 +9.8 94 +8 +8 тепло 1029.2 1023.5 +11.2 0.0
15 20.08 Ю 3 20 км 10/10 360 м
[Sc]
+10.6 +9.7 94 +8 +8 тепло 1029.1 1023.4
18 20.08 Ю 3 20 км 10/10 330 м
[Sc]
+10.5 +9.4 93 +8 +8 тепло 1029.1 1023.4
21 20.08 ЮВ 3 20 км 9/8 360 м
[Sc Ci fib]
+9.0 +7.7 92 +6 +6 тепло 1029.1 1023.3
00 21.08 Ю 2 20 км 9/0
[Ci fib]
+8.1 +7.3 95 +6 +6 тепло 1028.6 1022.9 +8.0
03 21.08 Ю 3 20 км 9/4 300 м
[Sc Ac cast]
+9.8 +8.8 93 +7 +8 тепло 1028.0 1022.3
06 21.08 ЮЗ 1 20 км 9/0
[Ac trans Ci fib]
+10.2 +8.5 89 +10 +12 тепло 1026.7 1021.0
09 21.08 С 4 20 км 8/0
[Ac trans Ci]
+10.8 +9.4 91 +8 +10 тепло 1025.1 1019.4
12 21.08 С 4 20 км 8/0
[Ac cast Ci]
+11.4 +9.8 90 +9 +10 тепло 1023.5 1017.8 +11.5
15 21.08 штиль 0 20 км 6/0
[Ac trans Ci fib]
+12.6 +9.3 80 +12 +12 тепло 1021.8 1016.1
18 21.08 ЮВ 3 20 км 4/0
[Ac trans]
+8.6 +7.9 95 +6 +6 тепло 1020.8 1015.0
21 21.08 ЮВ 4 20 км 4/0
[Ci fib]
+8.3 +7.6 95 +5 +5 тепло 1018.9 1013.2
00 22.08 Ю 4 20 км 6/0
[Ac trans Ci fib]
+9.6 +8.4 92 +7 +7 тепло 1018.3 1012.6 +8.1
03 22.08 Ю 5 н/о н/о +11.3 +9.7 90 +9 +9 тепло 1017.3 1011.1
06 22.08 Ю 5 20 км 6/6 90 м
[St]
+11.9 +10.4 91 +9 +10 тепло 1015.2 1009.6
09 22.08 Ю 3 20 км 3/1 300 м
[Sc diur, vesp Ci fib]
+12.8 +10.0 83 +11 +14 тепло 1013.0 1007.4 +13.0
12 22.08 Ю 3 20 км 3/1 300 м
[Sc diur, vesp Ci fib]
+12.8 +10.1 84 +11 +12 тепло 1013.6 1007.4 +13.0
15 22.08 В 2 20 км 6/0
[Cc]
+10.3 +9.5 95 +9 +9 тепло 1011.9 1006.2
18 22.08 ЮВ 4 20 км 6/0
[Ac trans Ci sp]
+8.3 +7.7 96 +5 +5 тепло 1010.1 1004.4
21 22.08 ЮВ 4 20 км 9/0
[Ac cuf Ci fib]
+9.8 +8.4 91 +7 +7 тепло 1008.6 1003.0
00 23.08 Ю 6 20 км 9/0
[Ac trans Ci fib]
+10.8 +9.4 91 +8 +8 тепло 1007.1 1001.5 +8.2
03 23.08 Ю 6 20 км 8/0
[Cc]
+12.2 +9.7 85 +9 +10 тепло 1005.6 1000.0

 

Местоположение метеостанции Остров Диксон (Красноярский край, Россия): широта 73.52 долгота 80.40 высота над уровнем моря 56 м.

В архиве по умолчанию представлена погода на Острове Диксон за последнюю неделю. Архивные данные за месяц целиком и за предыдущие месяцы, начиная с января 2011 года, Вы можете получить, выбрав интересующий диапазон дат из раскрывающегося списка и нажав кнопку "Ввод!".


*Определитесь, кто Вы:
робот инопланетянин человек

Внимание! Время в таблицах - всемирное. Для получения местного времени необходимо прибавить поправку, которая равна 7 ч.

Смотрите также архив погоды в соседних городах и на ближайших метеорологических станциях:

Погода в Сопочной Карге (Красноярский край, Россия) (199 км)
Погода на Островах Известий ЦИК (Красноярский край, Россия) (280 км)
Погода в Гыде (Ямало-Ненецкий АО, Россия) (301 км)
Погода на Мысе Стерлегова (Красноярский край, Россия) (329 км)
Погода в Имени Попова (Ямало-Ненецкий АО, Россия) (329 км)
Погода в Тамбее (Ямало-Ненецкий АО, Россия) (365 км)
Погода в Карауле (Красноярский край, Россия) (394 км)
Погода в Крестах Таймырских (Красноярский край, Россия) (437 км)
Погода на Острове Уединения (Красноярский край, Россия) (446 км)
Погода в Сеяхе (Ямало-Ненецкий АО, Россия) (461 км)

Пояснения к столбцам:

Ветер - указаны скорость ветра в м/с - средняя за 10 мин, порывы в срок и между сроками (в фигурных скобках) и направление, откуда дует ветер: С - северный, СВ - северо-восточный, В - восточный, ЮВ - юго-восточный, Ю - южный, ЮЗ - юго-западный, З - западный, СЗ - северо-западный.
Видимость - горизонтальная дальность видимости в метрах или километрах. При видимости от 1 до 10 км при отсутствии осадков обычно наблюдается дымка, при ухудшении видимости до 1 км и менее - туман. В сухую погоду видимость может ухудшаться дымом, пылью или мглою.
Явления - указаны атмосферные явления, наблюдавшиеся в срок или в последний час перед сроком; фигурными скобками обозначены явления, наблюдавшиеся между сроками (за 1-3 часа до срока); квадратными скобками обозначены град или гололедные отложения с указанием их диаметра в мм.
Облачность - указаны через наклонную черту общая и нижняя облачность в баллах и высота нижней границы облаков в метрах; квадратными скобками обозначены формы облаков: Ci - перистые, Cs - перисто-слоистые, Cc - перисто-кучевые, Ac - высококучевые, As - высокослоистые, Sc - слоисто-кучевые, Ns - слоисто-дождевые, Cu - кучевые, Cb - кучево-дождевые. Подробнее классификацию облаков см. в Атласе облаков (PDF).
T - Температура воздуха - температура, измеренная на высоте 2 м над землей.
Td - Температура точки росы - температура, при понижении до которой содержащийся в воздухе водяной пар достигнет насыщения.
f - Относительная влажность воздуха - влажноcть воздуха, измеренная на высоте 2 м над землей.
Te - Эффективная температура - температура, которую ощущает одетый по сезону человек в тени. Характеристика душности погоды. При расчете учитывается влияние влажности воздуха и скорости ветра на теплоощущения человека.
Tes - Эффективная температура на солнце - температура, которую ощущает человек, с поправкой на солнечный нагрев. Характеристика знойности погоды. Зависит от высоты солнца над горизонтом, облачности и скорости ветра. Ночью, в пасмурную погоду, а также при ветре 12 м/с и более поправка равна нулю.
P - Атмосферное давление - приведенное к уровню моря атмосферное давление.
Po - Атмосферное давление - измеренное на уровне метеостанции атмосферное давление.
Tmin - Минимальная температура - минимум температуры воздуха на высоте 2 м над землей.
Tmax - Максимальная температура - максимум температуры воздуха на высоте 2 м над землей.
R - Количество осадков - Количество выпавших осадков за период времени, мм. При наведении курсора мыши на число - период времени, за который выпало указанное количество осадков.
R24 - Количество осадков - Количество выпавших осадков за 24 часа, мм.
S - Снежный покров - Высота снежного покрова, см. При наведении курсора мыши на число - состояние снежного покрова и степень покрытия местности в баллах.